Wind_Speed
4 3 3 2 2 2 2 2 2 1 1 1 2 3 4 5 5 6 6 6 6 5 5 5 5 5 4 4 4 4 5 5 5 6 7 7 8 7 7 7 6 6 6
4 4 4 4 4 4 3 2 2 2 2 2 2 3 5 5 6 6 6 6 6 5 5 5 5 5 5 5 4 4 4 5 6 7 8 9 9 8 8 8 8 7 7
5 5 5 5 5 5 5 4 3 3 3 3 3 3 4 5 6 6 6 6 6 5 5 6 6 5 5 5 5 5 5 6 5 6 8 8 8 8 8 8 9 8 8
6 6 6 6 6 6 6 5 5 4 4 4 4 3 4 5 6 7 7 6 6 6 6 6 6 6 6 6 6 6 6 6 6 6 7 7 8 9 9 9 10 10 9
6 6 6 6 7 7 7 7 6 5 5 5 5 5 5 6 6 6 6 7 6 7 7 8 8 7 7 7 7 7 7 7 7 8 9 9 10 10 9 10 9 9 10
8 7 6 6 6 7 8 8 8 7 6 6 6 6 6 6 6 7 7 8 7 7 8 8 8 8 8 8 8 8 8 9 9 9 10 10 11 11 10 11 10 10 12
8 7 7 7 7 7 8 8 8 8 7 7 7 7 7 7 7 7 8 8 8 8 8 8 8 9 9 9 10 10 10 10 10 10 11 11 12 12 12 12 12 12 12
8 8 7 7 7 7 7 8 8 8 8 8 7 7 7 8 8 8 8 9 9 8 8 9 9 10 10 10 10 11 11 12 12 12 13 13 13 13 13 13 13 13 13
8 8 8 8 7 6 7 7 8 8 8 9 8 8 8 8 9 9 9 9 9 9 9 9 10 11 11 11 12 12 12 12 12 13 13 14 14 14 14 14 14 14 14
8 8 8 8 8 7 6 7 7 7 8 9 9 8 8 8 9 10 9 10 10 10 9 10 10 10 11 12 12 12 12 12 12 12 13 14 14 14 15 15 15 16 16
8 8 8 7 8 8 7 7 7 7 7 8 8 8 9 9 10 10 10 10 10 10 10 10 10 10 11 12 12 12 13 13 12 12 13 14 14 15 15 16 16 17 16
7 8 8 8 8 8 8 8 8 8 8 8 8 9 9 9 9 10 9 10 10 11 11 11 11 11 11 11 12 12 12 13 12 12 13 14 15 15 16 16 16 16 16
7 7 7 7 8 9 9 9 9 9 9 9 9 8 9 9 9 9 9 10 10 10 10 10 10 10 10 10 11 11 12 12 12 12 13 14 15 15 16 16 17 17 17
7 7 7 8 8 9 9 9 9 8 8 9 9 8 9 9 9 9 9 9 9 9 10 10 10 10 10 11 11 11 12 12 13 13 14 14 15 15 16 16 16 17 16
7 8 8 8 9 9 9 9 9 9 9 9 9 8 8 8 8 8 8 8 8 8 9 9 10 10 10 10 11 12 13 13 14 14 14 15 15 16 16 16 16 17 16
8 8 8 9 9 10 9 9 9 9 9 9 9 9 8 8 8 7 7 8 8 9 9 9 9 10 10 10 11 12 12 13 14 14 15 14 14 15 15 15 16 16 15
8 8 9 8 9 10 10 10 10 9 8 8 8 8 8 8 8 8 7 7 8 8 8 9 9 10 10 10 11 11 12 12 13 14 15 16 16 16 15 16 16 17 16
8 9 9 9 9 10 10 10 10 9 9 9 9 9 8 8 8 8 8 8 8 8 8 8 9 9 9 10 10 11 11 12 12 13 14 15 16 16 16 16 16 17 17
9 9 9 9 10 9 10 10 10 10 10 10 10 9 9 9 8 8 8 8 8 8 9 9 9 9 10 10 11 11 12 12 13 13 13 14 15 15 15 15 16 17 17
9 10 10 10 10 10 10 10 10 10 10 10 10 10 9 9 8 8 8 8 8 9 9 9 10 10 10 11 11 12 12 13 13 13 14 14 14 15 15 15 15 16 17
10 10 10 11 11 11 11 11 11 10 10 10 9 9 9 9 8 8 8 9 9 9 10 10 11 11 11 11 12 12 13 13 13 13 14 14 14 15 15 15 15 15 16
10 10 10 10 11 11 11 11 11 11 11 10 10 10 10 10 9 9 9 10 10 10 11 11 12 12 12 12 12 13 13 13 14 14 14 14 14 14 15 15 15 15 15
10 11 10 11 11 11 11 11 11 11 11 11 11 11 11 10 10 10 10 11 11 11 12 12 12 12 12 12 13 13 13 14 14 14 14 14 15 15 15 16 16 16 16
11 11 11 11 11 11 11 11 11 11 11 11 10 11 11 11 11 12 12 11 11 12 12 12 12 12 12 12 13 13 13 13 14 14 14 14 15 15 15 15 16 16 17
13 12 12 12 12 12 12 12 12 12 12 11 11 11 12 12 12 12 12 12 12 12 12 12 13 13 13 13 14 13 13 13 13 14 14 14 15 15 15 16 16 16 17
14 14 14 13 13 13 13 13 12 12 13 13 12 12 12 12 12 13 13 13 13 13 12 13 13 14 14 15 15 15 14 14 14 14 14 15 15 16 16 16 16 17 17
Wind_Direction
210 208 207 219 211 189 171 160 164 189 204 199 205 208 205 204 197 197 195 198 199 196 190 196 203 207 206 210 224 236 232 229 232 226 220 217 220 217 218 216 217 218 218
223 223 227 237 232 225 213 206 197 201 211 213 225 221 212 209 208 207 206 205 209 207 205 213 214 214 216 220 228 242 243 240 240 233 226 227 228 223 221 221 225 225 221
230 234 234 237 236 232 225 221 219 214 217 219 229 225 211 211 213 213 213 212 218 214 213 220 221 220 225 233 241 252 254 254 255 240 230 228 225 226 228 232 229 228 226
237 238 239 238 237 235 229 225 227 232 233 229 226 227 220 219 220 223 218 218 225 222 224 227 232 239 242 245 250 257 260 250 251 250 242 237 235 235 237 243 237 234 234
239 241 239 240 240 233 230 229 231 234 236 234 229 227 224 222 225 227 226 232 235 237 239 243 249 248 250 252 254 257 259 256 256 251 244 241 240 241 242 244 241 242 242
241 244 242 240 236 229 228 230 233 233 235 234 232 228 225 222 225 231 233 237 241 243 245 248 252 252 253 257 256 257 261 262 259 253 248 243 242 242 242 243 246 247 248
242 245 243 240 230 233 233 234 235 233 235 235 235 232 230 230 232 236 240 242 247 251 252 251 253 253 255 256 255 256 259 260 256 251 251 245 246 244 243 245 249 250 250
239 242 240 239 241 237 233 235 242 237 236 239 237 237 236 239 243 242 246 251 253 255 256 257 257 256 257 257 255 257 260 260 258 251 251 247 248 246 246 247 249 251 249
242 242 239 234 234 235 236 236 238 240 240 238 237 237 237 238 244 250 255 256 257 259 259 260 257 257 259 257 257 257 260 261 260 256 250 247 247 247 248 249 248 251 252
243 243 239 234 231 234 236 240 238 238 238 235 239 240 242 249 253 253 257 256 258 255 255 260 261 261 257 257 257 260 262 262 259 258 253 248 248 248 250 250 250 252 253
243 241 239 236 233 234 237 242 240 239 239 241 243 246 252 258 260 256 256 258 260 260 262 263 263 266 262 258 259 262 263 260 260 259 254 252 252 252 254 253 254 256 256
245 244 242 240 238 238 239 242 246 249 252 254 257 258 258 262 264 259 258 259 261 265 263 262 264 266 264 260 261 262 262 261 260 258 256 256 256 256 255 256 257 257 256
242 241 244 245 242 241 242 243 246 249 253 256 256 259 262 262 262 260 257 256 259 263 263 263 265 269 267 265 264 263 263 261 260 259 256 256 256 256 256 257 257 258 258
242 242 244 247 246 244 245 248 250 252 253 252 253 251 257 260 263 264 259 256 258 263 266 267 267 266 268 267 266 266 264 261 258 259 257 256 256 257 259 259 256 256 258
242 243 244 246 246 246 248 251 253 255 256 258 259 253 255 261 264 264 261 259 263 269 270 271 273 273 272 272 270 268 266 263 261 259 256 256 257 259 260 259 257 255 257
246 247 248 246 245 247 250 253 257 258 261 262 263 258 258 260 264 263 263 266 269 271 274 275 274 276 276 275 274 271 268 265 262 258 256 256 257 259 259 257 254 254 256
249 249 252 252 250 248 250 252 255 258 260 264 264 263 262 262 262 263 265 267 269 271 272 273 275 275 275 276 278 278 276 272 268 264 260 258 258 260 259 256 254 255 256
252 251 251 254 254 250 250 252 253 256 259 261 263 267 264 264 264 267 270 271 271 271 271 273 276 278 279 280 282 282 281 277 273 270 266 264 263 263 261 258 256 256 256
256 256 256 255 253 253 251 253 253 255 256 258 261 265 268 265 268 270 272 273 272 270 271 275 277 281 282 283 285 285 283 279 275 274 273 270 268 266 265 263 260 259 257
259 257 258 256 251 251 253 252 253 254 255 256 260 264 268 269 266 270 274 275 274 273 274 278 282 284 283 284 285 285 283 281 278 276 273 271 269 268 267 266 265 263 261
263 261 258 255 252 252 253 253 255 253 254 256 259 262 265 266 265 268 273 275 274 275 276 279 281 282 282 284 285 285 282 279 276 275 273 270 268 267 267 267 266 266 264
265 264 262 258 254 255 256 255 256 255 254 253 257 260 262 265 266 267 273 275 275 275 277 280 282 282 283 283 285 285 283 278 275 274 272 270 267 266 267 268 268 268 267
266 265 262 260 258 259 258 259 257 255 256 257 260 261 260 263 269 271 275 276 275 275 276 278 281 282 283 284 285 285 283 280 276 273 272 269 267 265 265 265 267 267 268
266 265 263 260 260 260 261 261 257 255 257 258 260 263 263 265 270 273 276 277 277 277 276 278 280 282 284 286 287 285 284 281 278 275 272 270 269 268 265 265 268 267 267
263 263 262 259 259 260 261 263 263 261 259 260 262 263 265 267 270 274 276 280 280 277 275 276 279 282 284 285 285 284 282 281 278 276 272 272 272 271 269 266 266 267 266
261 262 262 261 259 260 261 263 265 264 263 262 262 263 265 268 272 274 276 280 282 280 276 276 277 280 282 284 283 281 279 279 278 274 272 273 273 273 272 271 268 266 266
Height
5870 5869 5869 5869 5869 5869 5868 5868 5868 5868 5867 5867 5866 5866 5866 5866 5866 5867 5867 5868 5869 5869 5870 5870 5871 5871 5871 5871 5871 5871 5872 5872 5872 5872 5873 5873 5874 5874 5875 5876 5876 5876 5876
5869 5868 5868 5868 5868 5868 5868 5868 5868 5867 5867 5867 5866 5865 5864 5865 5866 5867 5868 5868 5868 5869 5869 5870 5870 5870 5870 5871 5871 5871 5871 5871 5871 5871 5872 5873 5873 5874 5874 5875 5875 5875 5875
5868 5867 5867 5868 5868 5868 5868 5868 5867 5867 5867 5867 5866 5864 5864 5865 5866 5867 5867 5867 5868 5868 5869 5869 5869 5869 5869 5870 5870 5870 5870 5870 5871 5871 5871 5872 5873 5873 5873 5874 5874 5874 5875
5866 5867 5867 5866 5866 5867 5867 5867 5867 5867 5867 5866 5866 5865 5865 5865 5865 5866 5867 5867 5867 5867 5868 5868 5868 5869 5869 5869 5869 5869 5870 5870 5870 5870 5870 5871 5871 5872 5873 5873 5873 5873 5873
5865 5866 5866 5865 5865 5865 5866 5866 5866 5866 5866 5866 5865 5865 5865 5865 5865 5866 5866 5866 5866 5867 5867 5867 5868 5868 5868 5868 5868 5868 5869 5869 5869 5869 5869 5870 5870 5871 5871 5871 5871 5872 5872
5864 5864 5865 5864 5863 5864 5864 5865 5865 5865 5865 5865 5865 5865 5865 5865 5865 5865 5865 5865 5865 5866 5866 5866 5866 5867 5867 5867 5867 5867 5867 5868 5868 5868 5868 5868 5868 5869 5869 5870 5870 5870 5870
5863 5863 5863 5863 5862 5863 5863 5863 5863 5863 5864 5864 5864 5864 5864 5864 5864 5864 5864 5864 5864 5865 5865 5865 5865 5865 5865 5866 5866 5866 5866 5866 5866 5866 5866 5867 5867 5867 5868 5868 5868 5868 5868
5861 5861 5862 5862 5862 5862 5862 5862 5862 5862 5862 5863 5862 5862 5863 5863 5863 5863 5863 5863 5863 5863 5863 5863 5863 5864 5864 5864 5864 5864 5864 5864 5864 5864 5864 5865 5865 5865 5865 5866 5866 5866 5866
5860 5860 5860 5860 5860 5860 5861 5861 5861 5861 5861 5861 5861 5861 5861 5861 5861 5861 5861 5861 5861 5862 5862 5862 5862 5862 5862 5862 5862 5862 5862 5862 5862 5862 5862 5862 5862 5863 5863 5864 5864 5864 5864
5858 5858 5859 5859 5859 5859 5859 5860 5859 5859 5860 5860 5860 5860 5860 5860 5859 5859 5859 5859 5859 5859 5860 5860 5860 5860 5860 5860 5860 5860 5860 5860 5860 5860 5859 5860 5860 5861 5861 5861 5861 5861 5861
5857 5857 5857 5857 5858 5858 5858 5858 5858 5858 5858 5858 5858 5858 5858 5858 5857 5857 5857 5857 5857 5857 5858 5858 5858 5858 5858 5858 5858 5858 5858 5858 5858 5858 5858 5858 5858 5858 5858 5858 5858 5859 5859
5855 5855 5855 5856 5856 5856 5857 5857 5857 5857 5857 5857 5857 5857 5856 5856 5855 5855 5855 5855 5856 5856 5856 5856 5856 5856 5856 5856 5856 5856 5855 5855 5855 5855 5855 5855 5855 5856 5856 5856 5856 5856 5856
5854 5854 5854 5854 5854 5855 5855 5855 5855 5855 5855 5855 5855 5855 5855 5854 5853 5853 5853 5853 5854 5854 5854 5854 5854 5854 5854 5853 5853 5853 5853 5853 5853 5853 5853 5853 5853 5853 5852 5852 5852 5852 5853
5853 5853 5853 5853 5853 5853 5853 5854 5854 5854 5854 5854 5854 5853 5853 5853 5852 5852 5852 5852 5852 5852 5852 5852 5852 5852 5852 5851 5851 5851 5851 5851 5850 5850 5850 5850 5850 5850 5849 5849 5849 5849 5850
5852 5851 5851 5851 5851 5851 5852 5852 5852 5852 5853 5852 5852 5852 5852 5851 5851 5851 5850 5850 5850 5851 5850 5850 5850 5850 5849 5849 5849 5849 5848 5848 5848 5847 5847 5847 5846 5846 5846 5846 5846 5846 5847
5850 5850 5850 5850 5850 5850 5850 5850 5851 5851 5851 5851 5851 5850 5850 5850 5850 5850 5849 5849 5849 5849 5849 5849 5848 5848 5848 5847 5847 5846 5846 5845 5845 5844 5844 5844 5843 5843 5843 5843 5843 5843 5843
5848 5848 5848 5848 5848 5848 5848 5848 5849 5849 5849 5849 5849 5849 5849 5849 5848 5848 5848 5847 5847 5847 5847 5847 5846 5846 5846 5845 5844 5844 5843 5842 5842 5841 5841 5840 5840 5840 5840 5840 5840 5840 5840
5846 5846 5846 5846 5846 5846 5846 5846 5847 5847 5847 5848 5847 5847 5847 5847 5847 5846 5846 5846 5846 5845 5845 5845 5844 5844 5843 5843 5842 5841 5841 5840 5839 5838 5838 5837 5837 5837 5837 5837 5837 5837 5837
5844 5844 5844 5844 5844 5844 5844 5844 5845 5845 5845 5846 5846 5845 5845 5845 5845 5844 5844 5844 5844 5843 5843 5843 5842 5842 5841 5840 5839 5838 5838 5837 5836 5836 5835 5834 5834 5834 5833 5833 5833 5833 5833
5842 5842 5842 5842 5842 5842 5842 5842 5843 5843 5843 5843 5843 5843 5843 5843 5843 5842 5842 5842 5841 5841 5841 5840 5840 5839 5838 5838 5837 5836 5835 5834 5833 5833 5832 5832 5831 5830 5830 5830 5830 5830 5829
5839 5839 5839 5839 5840 5840 5840 5840 5840 5841 5841 5841 5841 5841 5841 5841 5841 5840 5840 5840 5839 5839 5838 5838 5837 5837 5836 5835 5834 5833 5832 5831 5830 5830 5829 5829 5828 5828 5827 5827 5827 5826 5826
5837 5837 5837 5837 5837 5837 5838 5838 5838 5838 5838 5838 5839 5839 5839 5839 5838 5838 5838 5837 5837 5836 5836 5835 5835 5834 5833 5832 5831 5830 5829 5829 5827 5826 5826 5825 5825 5824 5824 5824 5823 5823 5823
5835 5834 5834 5834 5835 5835 5835 5835 5835 5836 5836 5836 5836 5836 5836 5836 5836 5835 5835 5834 5834 5833 5833 5832 5831 5831 5830 5829 5828 5827 5826 5825 5824 5823 5822 5822 5821 5821 5821 5820 5820 5820 5819
5832 5832 5832 5832 5832 5832 5832 5832 5833 5833 5833 5833 5833 5833 5833 5833 5832 5832 5832 5831 5831 5830 5829 5829 5828 5827 5827 5825 5824 5823 5822 5821 5821 5820 5819 5818 5818 5817 5817 5817 5816 5816 5816
5829 5829 5829 5829 5830 5830 5830 5830 5830 5830 5830 5830 5830 5830 5830 5830 5829 5829 5828 5828 5827 5826 5826 5825 5825 5824 5823 5822 5821 5819 5818 5818 5817 5816 5815 5815 5814 5813 5813 5812 5812 5812 5811
5825 5825 5826 5826 5826 5826 5827 5827 5827 5827 5827 5827 5827 5827 5827 5826 5826 5825 5824 5824 5823 5823 5822 5821 5821 5820 5819 5818 5817 5816 5815 5814 5813 5813 5812 5811 5810 5810 5809 5808 5808 5807 5807